Regional Weather Roundup
Issued by NWS

Home | Current Version | Previous Version | Graphics & Text | Print | Product List | Glossary Off
Versions: 1 2 3 4 5 6 7 8 9 10 11 12 13 14 15 16 17 18 19 20 21 22 23 24 25 26 27 28 29 30 31 32 33 34 35 36 37 38 39 40 41 42 43 44 45 46 47 48 49 50

018
ASUS43 KBIS 192310
RWRND

NORTH DAKOTA REGIONAL WEATHER ROUNDUP
NATIONAL WEATHER SERVICE BISMARCK ND
600 PM CDT TUE SEP 19 2017

NOTE: "FAIR" INDICATES FEW OR NO CLOUDS BELOW 12,000 FEET WITH NO
SIGNIFICANT WEATHER AND/OR OBSTRUCTIONS TO VISIBILITY.


NDZ001>003-009>011-017-200000-
NORTHWEST NORTH DAKOTA

CITY           SKY/WX    TMP DP  RH WIND       PRES   REMARKS
WILLISTON      CLOUDY    61  40  45 W20G26    29.51R
MINOT          CLOUDY    65  53  65 W9        29.45R
MINOT AFB      CLOUDY    65  52  62 W16       29.42S
$$

NDZ018>021-031>035-040>046-200000-
SOUTHWEST NORTH DAKOTA

CITY           SKY/WX    TMP DP  RH WIND       PRES   REMARKS
BISMARCK       PTSUNNY   65  47  52 NW12G22   29.46R
DICKINSON      LGT RAIN  54  50  86 SW9       29.57R
GARRISON         N/A     61  54  77 W14       29.49R
HETTINGER ARPT LGT RAIN  51  47  86 W16       29.62R
$$

NDZ004>008-012>016-024-026-027-054-200000-
NORTHEAST NORTH DAKOTA

CITY           SKY/WX    TMP DP  RH WIND       PRES   REMARKS
GRAND FORKS    TSTM      69  66  90 SE16      29.53F
GRND FRKS AFB  TSTM      68  65  93 SE18      29.50F
DEVILS LAKE    RAIN      66  64  93 SE16      29.48S
$$

NDZ022-023-025-028>030-036>039-047>053-200000-
SOUTHEAST NORTH DAKOTA

CITY           SKY/WX    TMP DP  RH WIND       PRES   REMARKS
FARGO          CLOUDY    73  64  73 SE21G31   29.42F
JAMESTOWN      CLOUDY    66  61  84 SE12G22   29.44F
$$





USA.gov is the U.S. government's official web portal to all federal, state and local government web resources and services.